{"data":{"norad_id":57014,"intl_designator":"2023-085L","name":"2023-085L","alt_names":[],"object_type":"PAYLOAD","status":"ACTIVE","operator":null,"country":"PRC","launch_date":"2023-06-15","launch_site_code":"TAISC","launch_vehicle":null,"mission":null,"orbit_class":"UNKNOWN","rcs_meters":null,"size_class":null,"mass_kg":null,"dimensions":null,"purposes":[],"wikipedia_slug":null,"has_3d_model":false,"image_url":null,"decayed_at":null,"tle_current":{"epoch":"2026-09-21T21:22:03.999648Z","epoch_age_seconds":79467,"freshness":"FRESH","line1":"1 57014U 23085L   26264.89032407  .00009475  00000+0  29142-3 0  9993","line2":"2 57014  97.5028  16.9929 0005403  69.7275 290.4548 15.33879747181437","mean_motion":15.33879747,"eccentricity":0.0005403,"inclination_deg":97.5028,"raan_deg":16.9929,"arg_perigee_deg":69.7275,"mean_anomaly_deg":290.4548,"bstar":0.00029142,"rev_number":18143,"period_min":93.879588854106,"perigee_km":460.55303711547,"apogee_km":467.94692048476,"semimajor_km":6842.3869788001,"source":"CELESTRAK","updated_at":"2026-09-22T09:00:25.997827Z"}}}